DateTimeUTC,F1_A11,F1_S11,BsB_S11,BsG_S11,BsR_S11,BbsB_S11,BbsG_S11,BbsR_S11,BaB_A11,BaG_A11,BaR_A11,Tu_S11,T_S11,Uu_S11,U_S11,P_S11,T1_A11
2021-06-07T15:00:00Z,00000200,20000000,,,,,,,-000.17,-000.07,0000.16,19.9,26.0,05.5,03.8,0671.7,31.1
2021-06-07T15:01:00Z,00000200,20000000,,,,,,,0000.20,0000.23,-000.11,19.9,26.1,05.4,03.7,0671.7,31.1
2021-06-07T15:02:00Z,00000200,20000000,,,,,,,-000.05,0000.01,-000.01,19.9,26.1,05.4,03.7,0671.7,31.1
2021-06-07T15:03:00Z,00000200,60000000,,,,,,,0000.36,0000.10,0000.10,19.9,26.1,05.4,03.7,0671.7,31.1
2021-06-07T15:04:00Z,00000200,40000000,0001.24,0001.01,0000.50,0000.27,0000.09,0000.13,0000.14,-000.02,0000.24,19.9,25.9,05.5,03.8,0672.6,31.1
2021-06-07T15:05:00Z,00000200,00000000,0000.51,0000.81,0000.59,0000.34,0000.09,-000.28,0000.70,0000.88,0000.10,20.0,25.9,05.6,03.9,0672.7,31.1
2021-06-07T15:06:00Z,00000200,00000000,0001.59,0000.50,0000.79,0000.36,0000.15,0000.12,0000.20,0000.23,0000.70,20.0,25.9,05.5,03.9,0672.7,31.1
2021-06-07T15:07:00Z,00000200,00000000,0000.74,0001.09,0000.69,0000.85,0000.15,0000.07,0000.48,0000.28,-000.04,20.0,25.9,05.7,04.0,0672.7,31.2
2021-06-07T15:08:00Z,00000200,00000000,0000.93,0000.83,0000.85,0000.23,-000.17,0000.38,0000.19,0000.27,0000.68,20.0,25.9,05.6,03.9,0672.7,31.1
2021-06-07T15:09:00Z,00000200,00000000,0001.35,0000.93,0000.80,-000.06,0000.07,0000.21,0000.36,0000.12,-000.11,20.0,25.9,05.5,03.9,0672.7,31.1
2021-06-07T15:10:00Z,00000200,00000000,0001.43,0000.61,0000.42,0000.30,0000.23,-000.00,0000.19,0000.48,0000.70,20.0,25.9,05.7,04.0,0672.7,31.1
2021-06-07T15:11:00Z,00000200,00000000,0001.12,0000.78,0000.62,0000.03,0000.06,0000.36,0000.56,0000.59,-000.28,20.0,25.9,05.7,04.0,0672.6,31.1
2021-06-07T15:12:00Z,00000200,00000000,0000.86,0000.94,0000.67,0000.25,0000.07,0000.05,0000.24,0000.17,0000.47,20.0,25.9,05.6,03.9,0672.6,31.1
2021-06-07T15:13:00Z,00000200,00000000,0001.14,0001.04,0000.89,-000.00,0000.16,0000.11,0000.59,0000.76,0000.29,20.0,25.9,05.6,04.0,0672.7,31.1
2021-06-07T15:14:00Z,00000200,00000000,0001.42,0000.84,0000.83,0000.30,0000.01,0000.12,0000.45,-000.34,0000.15,20.0,25.9,05.7,04.0,0672.6,31.1
2021-06-07T15:15:00Z,00000200,00000000,0001.47,0000.75,0001.12,0000.86,0000.27,0000.40,0000.36,0000.62,0000.54,20.0,25.9,05.6,03.9,0672.6,31.1
2021-06-07T15:16:00Z,00000200,00000000,0000.98,0000.88,0000.52,0000.29,0000.27,0000.07,0000.17,0000.46,0000.20,20.0,25.9,05.6,03.9,0672.6,31.1
2021-06-07T15:17:00Z,00000200,00000000,0000.83,0001.00,0000.60,-000.06,0000.21,-000.06,0000.48,0000.03,0000.13,20.0,25.9,05.6,03.9,0672.6,31.1
2021-06-07T15:18:00Z,00000200,00000000,0001.18,0000.93,0000.49,0000.16,0000.10,-000.28,0000.35,0000.24,0000.02,20.0,25.9,05.5,03.9,0672.6,31.1
2021-06-07T15:19:00Z,00000200,00000000,0000.82,0000.74,0000.91,-000.20,0000.03,0000.20,-000.05,0000.26,0000.34,20.0,25.9,05.3,03.8,0672.6,31.1
2021-06-07T15:20:00Z,00000200,00000000,0000.66,0001.09,0000.35,0000.25,0000.04,0000.24,0000.54,0000.54,0000.52,20.1,25.9,05.5,03.8,0672.6,31.1
2021-06-07T15:21:00Z,00000200,00000000,0001.21,0000.86,0000.67,0000.37,0000.03,0000.12,0000.33,0000.22,0000.12,20.0,25.9,05.4,03.8,0672.6,31.1
2021-06-07T15:22:00Z,00000200,00000000,0001.54,0000.74,0000.87,0000.15,0000.22,0000.28,0000.33,0000.33,0000.25,20.1,25.9,05.4,03.8,0672.6,31.1
2021-06-07T15:23:00Z,00000200,00000000,0001.28,0001.21,0000.57,0000.34,0000.25,0000.30,0000.04,-000.01,0000.10,20.1,25.9,05.4,03.8,0672.6,31.1
2021-06-07T15:24:00Z,00000200,00000000,0001.06,0001.00,0000.67,0000.13,0000.26,0000.19,0000.82,0000.62,0000.28,20.1,25.9,05.4,03.8,0672.7,31.1
2021-06-07T15:25:00Z,00000200,00000000,0001.02,0001.12,0000.82,0000.09,0000.32,0000.14,0000.37,0000.39,-000.06,20.1,25.9,05.5,03.9,0672.7,31.1
2021-06-07T15:26:00Z,00000200,00000000,0001.92,0000.92,0000.65,0000.05,-000.01,0000.16,0000.22,0000.84,0000.90,20.1,25.9,05.4,03.8,0672.7,31.1
2021-06-07T15:27:00Z,00000200,00000000,0000.98,0000.77,0000.58,-000.19,0000.21,0000.15,0000.61,0000.19,0000.04,20.1,25.9,05.5,03.8,0672.7,31.2
2021-06-07T15:28:00Z,00000200,00000000,0000.85,0000.84,0000.70,0000.64,0000.37,-000.14,0000.05,-000.02,0000.13,20.1,25.9,05.4,03.8,0672.7,31.1
2021-06-07T15:29:00Z,00000200,00000000,0001.40,0000.88,0000.68,0000.25,0000.21,0000.08,0000.45,0000.65,0000.50,20.1,25.9,05.2,03.7,0672.7,31.1
2021-06-07T15:30:00Z,00000200,00000000,0001.64,0001.05,0000.76,0000.04,0000.07,-000.01,0000.33,0000.27,0000.27,20.1,25.9,05.4,03.8,0672.7,31.1
2021-06-07T15:31:00Z,00000200,00000000,0001.81,0000.99,0000.76,-000.17,0000.23,0000.03,0000.48,0000.09,0000.39,20.1,25.9,05.2,03.7,0672.7,31.1
2021-06-07T15:32:00Z,00000200,00000000,0002.03,0001.07,0000.63,-000.13,0000.00,-000.07,0000.15,0000.33,-000.04,20.1,25.9,05.1,03.6,0672.7,31.1
2021-06-07T15:33:00Z,00000200,00000000,0000.46,0001.01,0000.78,-000.08,0000.13,0000.29,0000.55,0000.22,0000.15,20.1,25.9,05.2,03.6,0672.7,31.1
2021-06-07T15:34:00Z,00000200,00000000,0001.44,0000.99,0000.77,0000.19,0000.39,0000.18,-000.07,-000.16,0000.09,20.1,25.9,05.2,03.7,0672.7,31.1
2021-06-07T15:35:00Z,00000200,00000000,0001.58,0001.15,0000.45,0000.60,0000.25,0000.25,0000.30,0000.45,0000.46,20.1,25.9,05.2,03.6,0672.7,31.1
2021-06-07T15:36:00Z,00000200,00000000,0001.08,0001.02,0000.78,0000.31,0000.08,0000.18,0000.31,0000.41,-000.04,20.1,25.9,05.1,03.6,0672.7,31.1
2021-06-07T15:37:00Z,00000200,00000000,0001.46,0000.72,0000.71,0000.20,0000.39,0000.12,0000.71,0000.41,0000.58,20.1,26.0,05.2,03.6,0672.7,31.1
2021-06-07T15:38:00Z,00000200,00000000,0001.08,0001.08,0000.88,0000.51,0000.24,0000.12,-000.17,0000.06,0000.01,20.1,25.9,05.0,03.5,0672.7,31.1
2021-06-07T15:39:00Z,00000200,00000000,0000.98,0001.12,0000.84,0000.04,0000.27,0000.01,0000.54,0000.58,0000.29,20.1,25.9,05.1,03.6,0672.7,31.1
2021-06-07T15:40:00Z,00000200,00000000,0001.03,0001.26,0000.83,0000.02,0000.04,-000.04,0000.42,0000.25,0000.32,20.1,25.9,05.1,03.6,0672.7,31.1
2021-06-07T15:41:00Z,00000200,00000000,0001.21,0000.84,0000.78,-000.10,0000.23,0000.30,0000.42,0000.46,0000.45,20.1,25.9,05.0,03.5,0672.7,31.1
2021-06-07T15:42:00Z,00000200,00000000,0001.30,0001.20,0000.68,0000.11,0000.22,-000.11,0000.15,0000.32,0000.05,20.1,25.9,05.0,03.5,0672.7,31.2
2021-06-07T15:43:00Z,00000200,00000000,0001.41,0001.21,0000.74,-000.12,0000.20,0000.35,0000.18,-000.28,0000.04,20.1,26.0,04.9,03.5,0672.7,31.2
2021-06-07T15:44:00Z,00000200,00000000,0001.71,0000.59,0000.66,0000.22,0000.14,-000.08,0000.07,0000.20,0000.00,20.1,26.0,04.8,03.4,0672.7,31.1
2021-06-07T15:45:00Z,00000200,00000000,0001.84,0001.05,0000.83,0000.57,0000.42,0000.34,0000.35,-000.06,0000.10,20.1,26.0,04.7,03.3,0672.7,31.1
2021-06-07T15:46:00Z,00000200,00000000,0001.09,0000.98,0000.83,0000.19,-000.02,0000.12,-000.18,0000.21,0000.11,20.1,26.0,04.6,03.3,0672.7,31.2
2021-06-07T15:47:00Z,00000200,00000000,0001.42,0001.30,0000.81,0000.06,0000.15,0000.00,0000.34,0000.57,0000.27,20.2,26.0,04.6,03.3,0672.7,31.2
2021-06-07T15:48:00Z,00000200,00000000,0002.19,0000.99,0000.47,-000.32,0000.09,0000.12,0000.69,0000.11,0000.31,20.1,26.0,04.6,03.2,0672.7,31.1
2021-06-07T15:49:00Z,00000200,00000000,0001.39,0001.11,0000.74,0000.37,-000.00,-000.08,-000.21,0000.24,0000.11,20.1,26.0,04.5,03.2,0672.7,31.1
2021-06-07T15:50:00Z,00000200,00000000,0001.04,0000.73,0000.79,-000.13,0000.47,0000.16,0000.45,0000.18,0000.42,20.1,26.0,04.4,03.1,0672.7,31.1
2021-06-07T15:51:00Z,00000200,00000000,0001.03,0001.01,0000.68,-000.18,0000.31,0000.00,0000.26,0000.35,0000.02,20.1,26.0,04.5,03.2,0672.7,31.1
2021-06-07T15:52:00Z,00000200,00000000,0001.25,0000.69,0000.73,0000.00,0000.05,0000.15,-000.27,-000.39,-000.09,20.1,26.0,04.5,03.1,0672.7,31.2
2021-06-07T15:53:00Z,00000200,00000000,0001.23,0000.95,0000.62,-000.00,0000.27,0000.05,0000.55,0000.67,0000.56,20.1,26.0,04.2,03.0,0672.7,31.2
2021-06-07T15:54:00Z,00000200,00000000,0001.55,0001.08,0000.69,0000.38,0000.24,0000.33,0000.34,0000.24,-000.38,20.1,26.0,04.2,02.9,0672.6,31.1
2021-06-07T15:55:00Z,00000200,00000000,0000.33,0000.64,0000.86,0000.23,0000.22,0000.27,0000.54,0000.12,0000.62,20.2,26.0,04.3,03.0,0672.6,31.1
2021-06-07T15:56:00Z,00000200,00000000,0001.56,0000.93,0000.70,-000.07,0000.36,-000.01,-000.21,0000.01,-000.16,20.1,26.0,04.4,03.1,0672.6,31.1
2021-06-07T15:57:00Z,00000200,40000000,,,,,,,0000.19,0000.59,0000.51,20.2,26.0,04.0,02.8,0672.6,31.1
2021-06-07T15:58:00Z,00000200,60000000,,,,,,,-000.60,-000.62,-000.76,20.0,26.1,04.2,02.9,0671.7,31.2
2021-06-07T15:59:00Z,00000200,20010000,,,,,,,-000.74,-000.70,-000.39,20.0,26.2,04.0,02.8,0671.6,31.1
